OBJECT L, 44889

Orbit data source: Space-Track

You're viewing an Uncataloged Satellite

Recently launched and/or uncataloged satellites may have evolving metadata. Metadata may include but not limited to: Owner, Maufacturer, Bus, Motor, and Mission.

OBJECT L, 44889 is a satellite in SSO that was launched on Fri, 20 Dec 2019 UTC via a CHANG ZHENG 4B launch vehicle from the Taiyaun Space Center, China (TSC). Unknown objects in Earth's orbit typically refer to objects detected orbiting the Earth but have not yet been identified or cataloged. These objects could be anything from previously untracked satellites, spent rocket stages, debris from satellite collisions, or even natural meteoroids temporarily captured by Earth's gravity.

Loading next visibility...
Identifier
44889, 2019-093L
Orbit
SSO
Country
Flag of TBDTBD
Related business
None
Manufacturer
Unknown
Mission
Commercial Imaging
Bus & Motor
Unknown
Mass
Unknown
Launch date (UTC)
2019-12-20 (6 years ago)
Launch vehicle
CHANG ZHENG 4B
Launch site
Taiyaun Space Center, China (TSC)
Object type
Unknown
Shape & HBR
Box, Unknown HBR
Radar Cross Section
0.080 m², Medium (>0.1 m² and < 1m²)

Expand to show TLE details & history
Last TLE update: 8 hours ago

TLE from 8 hours ago
0 OBJECT L
1 44889U 19093L   25311.26413808  .00004871  00000-0  47581-3 0  9997
2 44889  97.7778  27.1638 0013426  72.0584 288.2098 14.92783348318670
Epoch: 2025-11-07T06:20Z
TLE epoch observation values (Epoch: 2025-11-07T06:20:21.530Z)
Latitude
0.00002°
Longitude
-114.63651°
Altitude
589.392 km
Speed
7.567 km/s
True Right ascension
01h 48m 39s
True Declination
0° 00' 00"
Sunlit
Object was in full shadow at epoch
Visualization orbit readout
Latitude
Unknown
Longitude
Unknown
Altitude
Unknown
Speed
Unknown
Apparent Right ascension
Unknown
Apparent Declination
Unknown
Sunlit
N/A
Visualization observer readout
Local Sidereal Time
10:07:25
Azimuth
Unknown
Elevation
Unknown
Doppler factor
Unknown
Orbital elements
Apogee altitude
595.63 km
Perigee altitude
576.929 km
Semi-major axis
6,964.417 km
Eccentricity
0.00134
Inclination
97.7778°
RAAN
27.1638°
Arg. of periapsis
72.0584°
True anomaly
288.06358°
Mean anomaly
288.2098°
Eccentric anomaly
288.1367°
Mean motion
3.73436 °/min
Orbital period
96.4 mins
BSTAR
0.00047581
Loading maneuver chart data...
Computing Atmospheric mass density...
Loading historical data...
Loading historical data...
Loading historical data...
Loading historical data...
Loading historical data...
Loading historical data...
Loading historical data...

Documentation

Showing up to 5 results
|